This demonstration page uses our WeatherBlox Daily Observations layout. Learn more.

Left ArrowRight Arrow

41.86663, -103.66717

Hourly Observations for April 4, 2018

Temp ( °F °C ) Dew Point ( °F °C ) Humidity (%) Winds ( mph kmh ) Pressure ( in mb ) Visibility ( mi km ) Precip ( " mm )
12:53 am 00:53 Clear 24 -4.4 19 -7.2 81 81 SE 6 9 30.21 1023 10 16 N/A
1:53 am 01:53 Clear 20 -6.7 17 -8.3 89 89 ESE 7 11 30.17 1022 10 16 N/A
2:53 am 02:53 Clear 21 -6.1 17 -8.3 85 85 ESE 9 15 30.13 1020 10 16 N/A
3:53 am 03:53 Clear 24 -4.4 19 -7.2 81 81 ESE 10 17 30.09 1019 10 16 N/A
4:53 am 04:53 Clear 24 -4.4 20 -6.7 84 84 ESE 10 17 30.07 1018 10 16 N/A
5:53 am 05:53 Clear 23 -5 19 -7.2 85 85 E 9 15 30.05 1018 10 16 N/A
6:53 am 06:53 Sunny 23 -5 19 -7.2 85 85 ESE 8 13 30.04 1017 10 16 N/A
7:53 am 07:53 Sunny 25 -3.9 20 -6.7 81 81 ESE 12 19 30.05 1018 10 16 N/A
8:53 am 08:53 Sunny 31 -0.6 21 -6.1 67 67 ESE 7 11 30.04 1017 10 16 N/A
9:53 am 09:53 Sunny 38 3.3 22 -5.6 52 52 SE 6 9 30.03 1017 10 16 N/A
10:53 am 10:53 Sunny 47 8.3 20 -6.7 34 34 NW 5 7 30.00 1016 10 16 N/A
11:53 am 11:53 Sunny 54 12.2 19 -7.2 25 25 NW 7 11 29.97 1015 10 16 N/A
12:53 pm 12:53 Sunny 59 15 17 -8.3 19 19 NW 13 20 29.92 1013 10 16 N/A
1:53 pm 13:53 Sunny 62 16.7 15 -9.4 16 16 WNW 28 44 29.91 1013 10 16 N/A
2:53 pm 14:53 Mostly Sunny 62 16.7 15 -9.4 16 16 WNW 25 41 29.89 1012 10 16 N/A
3:53 pm 15:53 Mostly Sunny 64 17.8 17 -8.3 16 16 WNW 24 39 29.85 1011 10 16 N/A
4:53 pm 16:53 Partly Cloudy 64 17.8 18 -7.8 17 17 N 21 33 29.87 1011 10 16 N/A
5:04 pm 17:04 Partly Cloudy 63 17 19 -7 19 19 NNW 9 15 29.74 1007 10 16 N/A
5:53 pm 17:53 Cloudy 58 14.4 21 -6.1 24 24 NNE 14 22 29.89 1012 10 16 N/A
6:53 pm 18:53 Cloudy 53 11.7 26 -3.3 35 35 ENE 5 7 29.93 1014 10 16 N/A
7:53 pm 19:53 Mostly Cloudy 47 8.3 26 -3.3 44 44 NE 12 19 29.96 1015 10 16 N/A
8:53 pm 20:53 Cloudy 47 8.3 26 -3.3 44 44 ENE 18 30 30.00 1016 10 16 N/A
9:53 pm 21:53 Cloudy 43 6.1 28 -2.2 56 56 NE 18 30 30.01 1016 10 16 N/A
10:53 pm 22:53 Mostly Cloudy 39 3.9 28 -2.2 65 65 E 10 17 30.01 1016 10 16 N/A
11:53 pm 23:53 Cloudy 37 2.8 28 -2.2 70 70 E 6 9 29.99 1016 10 16 N/A

Powered by AerisWeather